This demonstration page uses our WeatherBlox Daily Observations layout. Learn more.

Left ArrowRight Arrow

39.92423, -83.80882

Hourly Observations for February 11, 2019

Temp ( °F °C ) Dew Point ( °F °C ) Humidity (%) Winds ( mph kmh ) Pressure ( in mb ) Visibility ( mi km ) Precip ( " mm )
12:56 am 00:56 Cloudy with Light Rain 33 0.6 33 0.6 100 100 S 5 7 30.19 1023 2 2 0.01 0.25
1:51 am 01:51 Cloudy with Light Rain 34 1 34 1 100 100 SSW 3 6 30.20 1023 1 2 0.00 0.03
1:56 am 01:56 Cloudy with Light Rain 33 0.6 33 0.6 100 100 SSW 3 6 30.18 1022 1 2 0.00 0.03
2:09 am 02:09 Cloudy with Light Wintry Mix 34 1 34 1 100 100 Calm 30.19 1022 1 1 0.00 0.03
2:22 am 02:22 Cloudy with Light Wintry Mix 34 1 34 1 100 100 Calm 30.19 1022 1 1 0.00 0.03
2:56 am 02:56 Cloudy with Light Wintry Mix 33 0.6 33 0.6 100 100 Calm 30.18 1022 1 1 0.00 0.03
3:56 am 03:56 Cloudy with Light Rain 33 0.6 33 0.6 100 100 S 3 6 30.18 1022 1 1 0.00 0.03
4:56 am 04:56 Cloudy with Light Rain 33 0.6 33 0.6 100 100 Calm 30.17 1022 1 1 0.02 0.51
5:06 am 05:06 Cloudy with Light Rain 34 1 34 1 100 100 Calm 30.17 1022 1 1 0.00 0.03
5:26 am 05:26 Cloudy with Light Rain 34 1 34 1 100 100 S 5 7 30.18 1022 1 1 0.00 0.03
5:33 am 05:33 Cloudy with Light Rain 34 1 34 1 100 100 Calm 30.18 1022 1 1 0.00 0.03
5:37 am 05:37 Cloudy with Rain 34 1 34 1 100 100 Calm 30.18 1022 1 2 0.02 0.51
5:51 am 05:51 Cloudy with Light Rain 34 1 34 1 100 100 Calm 30.18 1022 1 2 0.06 1.52
5:56 am 05:56 Cloudy with Light Rain 33 0.6 33 0.6 100 100 Calm 30.16 1021 1 2 0.06 1.52
6:05 am 06:05 Cloudy with Light Rain 34 1 34 1 100 100 NE 5 7 30.17 1022 1 1 0.00 0.03
6:13 am 06:13 Cloudy with Light Rain 34 1 34 1 100 100 NNE 5 7 30.18 1022 1 2 0.00 0.03
6:23 am 06:23 Cloudy with Light Rain 34 1 34 1 100 100 NE 3 6 30.18 1022 1 2 0.00 0.03
6:40 am 06:40 Cloudy with Light Rain 34 1 34 1 100 100 ENE 3 6 30.18 1022 1 1 0.00 0.03
6:56 am 06:56 Cloudy with Light Rain 33 0.6 33 0.6 100 100 E 3 6 30.17 1022 1 1 0.01 0.25
7:36 am 07:36 Cloudy with Light Rain 34 1 34 1 100 100 Calm 30.19 1022 0 0 0.00 0.03
7:56 am 07:56 Cloudy with Light Rain 33 0.6 33 0.6 100 100 SSE 6 9 30.18 1022 0 0 0.01 0.25
8:11 am 08:11 Cloudy with Light Rain 34 1 34 1 100 100 Calm 30.19 1022 1 1 0.00 0.03
8:21 am 08:21 Cloudy with Light Wintry Mix 34 1 34 1 100 100 Calm 30.20 1023 0 0 0.00 0.03
8:48 am 08:48 Cloudy with Light Rain 34 1 34 1 100 100 E 3 6 30.20 1023 0 0 0.00 0.03
8:56 am 08:56 Cloudy with Light Rain 33 0.6 33 0.6 100 100 E 3 6 30.19 1022 0 0 0.00 0.03
9:26 am 09:26 Cloudy with Fog 34 1 34 1 100 100 E 3 6 30.20 1023 0 0 0.00 0.03
9:56 am 09:56 Cloudy with Fog 34 1.1 34 1.1 100 100 ESE 6 9 30.17 1022 1 1 0.00 0.03
10:18 am 10:18 Cloudy with Mist and Fog 34 1 34 1 100 100 E 5 7 30.19 1022 1 1 0.00 0.00
10:33 am 10:33 Cloudy with Fog 34 1 34 1 100 100 E 5 7 30.19 1022 1 1 0.00 0.00
10:45 am 10:45 Cloudy with Mist and Fog 34 1 34 1 100 100 ESE 6 9 30.18 1022 1 2 0.00 0.00
10:49 am 10:49 Cloudy with Mist and Fog 34 1 34 1 100 100 E 6 9 30.18 1022 2 3 0.00 0.00
10:56 am 10:56 Cloudy with Mist and Fog 34 1.1 34 1.1 100 100 E 6 9 30.16 1022 2 3 0.00 0.00
11:56 am 11:56 Cloudy 35 1.7 35 1.7 100 100 E 7 11 30.16 1021 8 13 0.00 0.03
12:12 pm 12:12 Cloudy 36 2 36 2 100 100 E 7 11 30.17 1022 10 16 0.00 0.00
12:33 pm 12:33 Cloudy with Light Rain 36 2 36 2 100 100 E 7 11 30.16 1021 8 13 0.00 0.03
12:56 pm 12:56 Cloudy with Light Rain 36 2.2 36 2.2 100 100 E 9 15 30.13 1020 10 16 0.00 0.03
1:56 pm 13:56 Cloudy 38 3.3 38 3.3 100 100 E 9 15 30.09 1019 10 16 0.00 0.03
2:41 pm 14:41 Cloudy 37 3 37 3 100 100 E 8 13 30.10 1019 10 16 0.00 0.03
2:56 pm 14:56 Cloudy with Light Rain 37 2.8 37 2.8 100 100 E 7 11 30.10 1019 10 16 0.00 0.03
3:26 pm 15:26 Cloudy with Light Rain 36 2 36 2 100 100 E 8 13 30.12 1020 8 13 0.00 0.03
3:56 pm 15:56 Cloudy with Light Rain 36 2.2 36 2.2 100 100 E 9 15 30.09 1019 4 6 0.00 0.03
4:56 pm 16:56 Cloudy with Light Rain 35 1.7 35 1.7 100 100 E 10 17 30.07 1018 3 5 0.02 0.51
5:56 pm 17:56 Cloudy with Light Rain 35 1.7 35 1.7 100 100 ENE 9 15 30.07 1018 4 6 0.04 1.02
6:56 pm 18:56 Cloudy with Light Rain 35 1.7 35 1.7 100 100 ENE 10 17 30.07 1018 5 8 0.10 2.54
7:56 pm 19:56 Cloudy with Light Rain 35 1.7 35 1.7 100 100 ENE 14 22 30.06 1018 6 10 0.06 1.52
8:56 pm 20:56 Cloudy with Light Rain 35 1.7 35 1.7 100 100 E 12 19 30.05 1018 6 10 0.10 2.54
9:56 pm 21:56 Cloudy with Light Rain 35 1.7 35 1.7 100 100 E 14 22 30.01 1016 7 11 0.09 2.29
10:56 pm 22:56 Cloudy with Light Rain 35 1.7 35 1.7 100 100 E 13 20 29.99 1016 7 11 0.03 0.76
11:56 pm 23:56 Cloudy with Light Rain 35 1.7 35 1.7 100 100 E 17 28 29.95 1014 6 10 0.03 0.76

Powered by AerisWeather